Time,TemperatureF,DewpointF,PressureIn,WindDirection,WindDirectionDegrees,WindSpeedMPH,WindSpeedGustMPH,Humidity,HourlyPrecipIn,Conditions,Clouds,dailyrainin,SoftwareType,DateUTC
2013-10-19 00:01:00,47.0,17.2,29.90,NW,315,1.0,3.0,30,0.00,,,0.00,WUHU216HW,2013-10-19 06:01:00,
2013-10-19 00:06:00,46.6,17.6,29.90,NNW,338,0.0,3.0,31,0.00,,,0.00,WUHU216HW,2013-10-19 06:06:00,
2013-10-19 00:11:00,46.3,17.9,29.90,NNW,338,0.0,2.0,32,0.00,,,0.00,WUHU216HW,2013-10-19 06:11:00,
2013-10-19 00:16:00,45.7,18.7,29.91,North,0,0.0,2.0,34,0.00,,,0.00,WUHU216HW,2013-10-19 06:16:00,
2013-10-19 00:21:00,45.4,19.1,29.91,NNW,338,1.0,2.0,35,0.00,,,0.00,WUHU216HW,2013-10-19 06:21:00,
2013-10-19 00:26:00,45.0,19.4,29.91,NNW,338,1.0,2.0,36,0.00,,,0.00,WUHU216HW,2013-10-19 06:26:00,
2013-10-19 00:31:00,45.0,20.8,29.91,NW,315,2.0,4.0,38,0.00,,,0.00,WUHU216HW,2013-10-19 06:31:00,
2013-10-19 00:36:00,44.6,22.3,29.91,NNW,338,2.0,4.0,41,0.00,,,0.00,WUHU216HW,2013-10-19 06:36:00,
2013-10-19 00:41:00,44.5,22.1,29.91,WNW,293,0.0,4.0,41,0.00,,,0.00,WUHU216HW,2013-10-19 06:41:00,
2013-10-19 00:46:00,44.1,21.9,29.91,WNW,293,0.0,2.0,41,0.00,,,0.00,WUHU216HW,2013-10-19 06:46:00,
2013-10-19 00:51:00,43.9,22.2,29.92,NNW,338,3.0,3.0,42,0.00,,,0.00,WUHU216HW,2013-10-19 06:51:00,
2013-10-19 00:56:00,43.7,25.3,29.91,North,0,3.0,5.0,48,0.00,,,0.00,WUHU216HW,2013-10-19 06:56:00,
2013-10-19 01:01:00,43.6,26.2,29.92,WNW,293,2.0,5.0,50,0.00,,,0.00,WUHU216HW,2013-10-19 07:01:00,
2013-10-19 01:06:00,43.4,23.9,29.92,NW,315,1.0,3.0,46,0.00,,,0.00,WUHU216HW,2013-10-19 07:06:00,
2013-10-19 01:11:00,43.2,25.4,29.91,NNW,338,0.0,2.0,49,0.00,,,0.00,WUHU216HW,2013-10-19 07:11:00,
2013-10-19 01:16:00,43.0,24.7,29.91,NW,315,2.0,2.0,48,0.00,,,0.00,WUHU216HW,2013-10-19 07:16:00,
2013-10-19 01:21:00,42.8,24.5,29.91,WNW,293,0.0,3.0,48,0.00,,,0.00,WUHU216HW,2013-10-19 07:21:00,
2013-10-19 01:26:00,42.5,25.7,29.92,North,0,0.0,3.0,51,0.00,,,0.00,WUHU216HW,2013-10-19 07:26:00,
2013-10-19 01:31:00,42.3,24.5,29.92,NNW,338,0.0,2.0,49,0.00,,,0.00,WUHU216HW,2013-10-19 07:31:00,
2013-10-19 01:36:00,42.1,24.3,29.91,WNW,293,2.0,3.0,49,0.00,,,0.00,WUHU216HW,2013-10-19 07:36:00,
2013-10-19 01:41:00,41.9,24.1,29.92,WNW,293,1.0,3.0,49,0.00,,,0.00,WUHU216HW,2013-10-19 07:41:00,
2013-10-19 01:46:00,41.8,23.9,29.92,West,270,2.0,3.0,49,0.00,,,0.00,WUHU216HW,2013-10-19 07:46:00,
2013-10-19 01:51:00,41.6,23.8,29.92,NNW,338,2.0,3.0,49,0.00,,,0.00,WUHU216HW,2013-10-19 07:51:00,
2013-10-19 01:56:00,41.4,23.6,29.92,NW,315,4.0,4.0,49,0.00,,,0.00,WUHU216HW,2013-10-19 07:56:00,
2013-10-19 02:01:00,41.2,25.8,29.92,NNW,338,1.0,4.0,54,0.00,,,0.00,WUHU216HW,2013-10-19 08:01:00,
2013-10-19 02:06:00,41.0,25.1,29.92,NNW,338,4.0,4.0,53,0.00,,,0.00,WUHU216HW,2013-10-19 08:06:00,
2013-10-19 02:11:00,40.9,24.9,29.92,NW,315,3.0,4.0,53,0.00,,,0.00,WUHU216HW,2013-10-19 08:11:00,
2013-10-19 02:16:00,40.7,25.2,29.92,NNW,338,2.0,4.0,54,0.00,,,0.00,WUHU216HW,2013-10-19 08:16:00,
2013-10-19 02:21:00,40.5,25.5,29.93,North,0,1.0,5.0,55,0.00,,,0.00,WUHU216HW,2013-10-19 08:21:00,
2013-10-19 02:26:00,40.3,26.2,29.92,NNE,23,2.0,5.0,57,0.00,,,0.00,WUHU216HW,2013-10-19 08:26:00,
2013-10-19 02:31:00,40.3,26.2,29.92,North,0,2.0,3.0,57,0.00,,,0.00,WUHU216HW,2013-10-19 08:31:00,
2013-10-19 02:36:00,40.1,25.6,29.92,NE,45,1.0,3.0,56,0.00,,,0.00,WUHU216HW,2013-10-19 08:36:00,
2013-10-19 02:41:00,40.0,25.4,29.92,NNW,338,1.0,3.0,56,0.00,,,0.00,WUHU216HW,2013-10-19 08:41:00,
2013-10-19 02:46:00,40.0,25.4,29.92,West,270,0.0,2.0,56,0.00,,,0.00,WUHU216HW,2013-10-19 08:46:00,
2013-10-19 02:51:00,39.6,24.7,29.92,NNW,338,1.0,2.0,55,0.00,,,0.00,WUHU216HW,2013-10-19 08:51:00,
2013-10-19 02:56:00,39.6,24.7,29.92,NW,315,0.0,2.0,55,0.00,,,0.00,WUHU216HW,2013-10-19 08:56:00,
2013-10-19 03:01:00,39.4,24.5,29.92,NW,315,2.0,2.0,55,0.00,,,0.00,WUHU216HW,2013-10-19 09:01:00,
2013-10-19 03:06:00,39.2,24.3,29.92,NNW,338,1.0,2.0,55,0.00,,,0.00,WUHU216HW,2013-10-19 09:06:00,
2013-10-19 03:11:00,39.1,24.6,29.92,WNW,293,1.0,3.0,56,0.00,,,0.00,WUHU216HW,2013-10-19 09:11:00,
2013-10-19 03:16:00,39.1,24.6,29.92,NNW,338,0.0,3.0,56,0.00,,,0.00,WUHU216HW,2013-10-19 09:16:00,
2013-10-19 03:21:00,38.9,24.4,29.92,NW,315,0.0,2.0,56,0.00,,,0.00,WUHU216HW,2013-10-19 09:21:00,
2013-10-19 03:26:00,38.7,23.9,29.92,WNW,293,0.0,1.0,55,0.00,,,0.00,WUHU216HW,2013-10-19 09:26:00,
2013-10-19 03:31:00,38.5,24.1,29.92,West,270,0.0,2.0,56,0.00,,,0.00,WUHU216HW,2013-10-19 09:31:00,
2013-10-19 03:36:00,38.5,24.5,29.92,NW,315,1.0,2.0,57,0.00,,,0.00,WUHU216HW,2013-10-19 09:36:00,
2013-10-19 03:41:00,38.3,24.8,29.92,NW,315,1.0,3.0,58,0.00,,,0.00,WUHU216HW,2013-10-19 09:41:00,
2013-10-19 03:46:00,38.2,24.2,29.92,NNW,338,1.0,3.0,57,0.00,,,0.00,WUHU216HW,2013-10-19 09:46:00,
2013-10-19 03:51:00,38.2,24.7,29.92,WNW,293,1.0,3.0,58,0.00,,,0.00,WUHU216HW,2013-10-19 09:51:00,
2013-10-19 03:56:00,37.8,25.2,29.92,NNE,23,0.0,2.0,60,0.00,,,0.00,WUHU216HW,2013-10-19 09:56:00,
2013-10-19 04:01:00,37.8,24.8,29.92,WNW,293,1.0,1.0,59,0.00,,,0.00,WUHU216HW,2013-10-19 10:01:00,
2013-10-19 04:06:00,37.4,24.4,29.92,NW,315,1.0,2.0,59,0.00,,,0.00,WUHU216HW,2013-10-19 10:06:00,
2013-10-19 04:11:00,37.4,24.4,29.92,NW,315,0.0,2.0,59,0.00,,,0.00,WUHU216HW,2013-10-19 10:11:00,
2013-10-19 04:16:00,37.3,24.7,29.92,NW,315,2.0,2.0,60,0.00,,,0.00,WUHU216HW,2013-10-19 10:16:00,
2013-10-19 04:21:00,37.3,24.7,29.92,NNW,338,0.0,3.0,60,0.00,,,0.00,WUHU216HW,2013-10-19 10:21:00,
2013-10-19 04:26:00,37.1,24.5,29.92,WNW,293,1.0,3.0,60,0.00,,,0.00,WUHU216HW,2013-10-19 10:26:00,
2013-10-19 04:31:00,37.1,24.5,29.92,WNW,293,2.0,3.0,60,0.00,,,0.00,WUHU216HW,2013-10-19 10:31:00,
2013-10-19 04:36:00,36.9,24.8,29.92,NW,315,2.0,3.0,61,0.00,,,0.00,WUHU216HW,2013-10-19 10:36:00,
2013-10-19 04:41:00,36.7,24.9,29.92,NW,315,2.0,4.0,62,0.00,,,0.00,WUHU216HW,2013-10-19 10:41:00,
2013-10-19 04:46:00,36.7,24.6,29.92,West,270,1.0,4.0,61,0.00,,,0.00,WUHU216HW,2013-10-19 10:46:00,
2013-10-19 04:51:00,36.7,24.9,29.92,NW,315,3.0,4.0,62,0.00,,,0.00,WUHU216HW,2013-10-19 10:51:00,
2013-10-19 04:56:00,36.5,25.1,29.92,NNE,23,2.0,5.0,63,0.00,,,0.00,WUHU216HW,2013-10-19 10:56:00,
2013-10-19 05:01:00,36.4,25.4,29.92,NNW,338,0.0,5.0,64,0.00,,,0.00,WUHU216HW,2013-10-19 11:01:00,
2013-10-19 05:06:00,36.4,26.1,29.92,NE,45,1.0,3.0,66,0.00,,,0.00,WUHU216HW,2013-10-19 11:06:00,
2013-10-19 05:11:00,36.2,25.9,29.92,North,0,0.0,3.0,66,0.00,,,0.00,WUHU216HW,2013-10-19 11:11:00,
2013-10-19 05:16:00,36.2,26.7,29.92,NNW,338,1.0,3.0,68,0.00,,,0.00,WUHU216HW,2013-10-19 11:16:00,
2013-10-19 05:21:00,36.2,26.3,29.92,NNW,338,0.0,2.0,67,0.00,,,0.00,WUHU216HW,2013-10-19 11:21:00,
2013-10-19 05:26:00,36.0,26.1,29.92,North,0,0.0,2.0,67,0.00,,,0.00,WUHU216HW,2013-10-19 11:26:00,
2013-10-19 05:31:00,36.0,26.5,29.92,NE,45,1.0,2.0,68,0.00,,,0.00,WUHU216HW,2013-10-19 11:31:00,
2013-10-19 05:36:00,36.0,26.5,29.92,NNW,338,1.0,3.0,68,0.00,,,0.00,WUHU216HW,2013-10-19 11:36:00,
2013-10-19 05:41:00,36.2,26.7,29.92,NNW,338,2.0,3.0,68,0.00,,,0.00,WUHU216HW,2013-10-19 11:41:00,
2013-10-19 05:46:00,36.0,26.8,29.93,NW,315,3.0,4.0,69,0.00,,,0.00,WUHU216HW,2013-10-19 11:46:00,
2013-10-19 05:51:00,36.0,27.2,29.93,North,0,0.0,4.0,70,0.00,,,0.00,WUHU216HW,2013-10-19 11:51:00,
2013-10-19 05:56:00,35.8,26.7,29.93,NNW,338,1.0,4.0,69,0.00,,,0.00,WUHU216HW,2013-10-19 11:56:00,
2013-10-19 06:01:00,35.8,27.0,29.93,NW,315,1.0,4.0,70,0.00,,,0.00,WUHU216HW,2013-10-19 12:01:00,
2013-10-19 06:06:00,35.6,26.5,29.93,NNW,338,0.0,3.0,69,0.00,,,0.00,WUHU216HW,2013-10-19 12:06:00,
2013-10-19 06:11:00,35.6,25.7,29.93,North,0,0.0,3.0,67,0.00,,,0.00,WUHU216HW,2013-10-19 12:11:00,
2013-10-19 06:16:00,35.6,25.7,29.93,ENE,68,0.0,2.0,67,0.00,,,0.00,WUHU216HW,2013-10-19 12:16:00,
2013-10-19 06:21:00,35.6,26.5,29.93,NNW,338,3.0,4.0,69,0.00,,,0.00,WUHU216HW,2013-10-19 12:21:00,
2013-10-19 06:27:00,35.5,26.3,29.93,ENE,68,3.0,4.0,69,0.00,,,0.00,WUHU216HW,2013-10-19 12:27:00,
2013-10-19 06:32:00,35.5,26.6,29.93,NNW,338,1.0,3.0,70,0.00,,,0.00,WUHU216HW,2013-10-19 12:32:00,
2013-10-19 06:37:00,35.5,26.6,29.93,North,0,1.0,3.0,70,0.00,,,0.00,WUHU216HW,2013-10-19 12:37:00,
2013-10-19 06:42:00,35.3,26.1,29.93,NNW,338,1.0,3.0,69,0.00,,,0.00,WUHU216HW,2013-10-19 12:42:00,
2013-10-19 06:47:00,35.3,25.7,29.93,ENE,68,0.0,2.0,68,0.00,,,0.00,WUHU216HW,2013-10-19 12:47:00,
2013-10-19 06:52:00,35.3,26.1,29.93,NNW,338,1.0,2.0,69,0.00,,,0.00,WUHU216HW,2013-10-19 12:52:00,
2013-10-19 06:57:00,35.3,26.1,29.93,NE,45,0.0,4.0,69,0.00,,,0.00,WUHU216HW,2013-10-19 12:57:00,
2013-10-19 07:02:00,35.3,26.1,29.93,SE,135,0.0,4.0,69,0.00,,,0.00,WUHU216HW,2013-10-19 13:02:00,
2013-10-19 07:07:00,35.1,26.3,29.93,NE,45,1.0,2.0,70,0.00,,,0.00,WUHU216HW,2013-10-19 13:07:00,
2013-10-19 07:12:00,35.1,25.6,29.93,NW,315,0.0,2.0,68,0.00,,,0.00,WUHU216HW,2013-10-19 13:12:00,
2013-10-19 07:17:00,35.1,25.9,29.93,NNW,338,0.0,1.0,69,0.00,,,0.00,WUHU216HW,2013-10-19 13:17:00,
2013-10-19 07:22:00,34.9,25.4,29.93,NW,315,1.0,2.0,68,0.00,,,0.00,WUHU216HW,2013-10-19 13:22:00,
2013-10-19 07:27:00,34.9,25.0,29.93,NW,315,0.0,2.0,67,0.00,,,0.00,WUHU216HW,2013-10-19 13:27:00,
2013-10-19 07:32:00,34.9,25.0,29.93,NNW,338,0.0,1.0,67,0.00,,,0.00,WUHU216HW,2013-10-19 13:32:00,
2013-10-19 07:37:00,34.9,25.4,29.93,NE,45,3.0,3.0,68,0.00,,,0.00,WUHU216HW,2013-10-19 13:37:00,
2013-10-19 07:42:00,35.1,25.9,29.93,NNE,23,2.0,3.0,69,0.00,,,0.00,WUHU216HW,2013-10-19 13:42:00,
2013-10-19 07:47:00,35.3,26.5,29.94,North,0,1.0,3.0,70,0.00,,,0.00,WUHU216HW,2013-10-19 13:47:00,
2013-10-19 07:52:00,35.5,26.3,29.94,NW,315,0.0,3.0,69,0.00,,,0.00,WUHU216HW,2013-10-19 13:52:00,
2013-10-19 07:57:00,35.6,26.1,29.93,North,0,0.0,3.0,68,0.00,,,0.00,WUHU216HW,2013-10-19 13:57:00,
2013-10-19 08:02:00,35.8,25.9,29.94,NW,315,1.0,2.0,67,0.00,,,0.00,WUHU216HW,2013-10-19 14:02:00,
2013-10-19 08:07:00,35.8,25.9,29.94,WSW,248,0.0,3.0,67,0.00,,,0.00,WUHU216HW,2013-10-19 14:07:00,
2013-10-19 08:12:00,36.0,26.1,29.94,NNW,338,1.0,4.0,67,0.00,,,0.00,WUHU216HW,2013-10-19 14:12:00,
2013-10-19 08:17:00,36.4,26.1,29.94,North,0,1.0,4.0,66,0.00,,,0.00,WUHU216HW,2013-10-19 14:17:00,
2013-10-19 08:22:00,36.9,26.6,29.94,WNW,293,2.0,4.0,66,0.00,,,0.00,WUHU216HW,2013-10-19 14:22:00,
2013-10-19 08:27:00,37.4,27.1,29.95,NNW,338,2.0,5.0,66,0.00,,,0.00,WUHU216HW,2013-10-19 14:27:00,
2013-10-19 08:32:00,38.7,27.5,29.95,NW,315,3.0,5.0,64,0.00,,,0.00,WUHU216HW,2013-10-19 14:32:00,
2013-10-19 08:37:00,40.0,28.7,29.95,NW,315,3.0,5.0,64,0.00,,,0.00,WUHU216HW,2013-10-19 14:37:00,
2013-10-19 08:42:00,41.6,29.5,29.95,NW,315,1.0,5.0,62,0.00,,,0.00,WUHU216HW,2013-10-19 14:42:00,
2013-10-19 08:47:00,42.5,29.5,29.95,NW,315,5.0,5.0,60,0.00,,,0.00,WUHU216HW,2013-10-19 14:47:00,
2013-10-19 08:52:00,43.6,29.7,29.95,NW,315,3.0,5.0,58,0.00,,,0.00,WUHU216HW,2013-10-19 14:52:00,
2013-10-19 08:57:00,44.5,30.2,29.95,NNW,338,2.0,5.0,57,0.00,,,0.00,WUHU216HW,2013-10-19 14:57:00,
2013-10-19 09:02:00,45.5,31.1,29.95,NW,315,2.0,4.0,57,0.00,,,0.00,WUHU216HW,2013-10-19 15:02:00,
2013-10-19 09:07:00,45.7,30.9,29.95,NW,315,3.0,4.0,56,0.00,,,0.00,WUHU216HW,2013-10-19 15:07:00,
2013-10-19 09:12:00,46.4,31.5,29.95,NW,315,2.0,4.0,56,0.00,,,0.00,WUHU216HW,2013-10-19 15:12:00,
2013-10-19 09:17:00,47.3,31.9,29.95,NW,315,1.0,4.0,55,0.00,,,0.00,WUHU216HW,2013-10-19 15:17:00,
2013-10-19 09:22:00,47.5,31.1,29.95,NNW,338,1.0,3.0,53,0.00,,,0.00,WUHU216HW,2013-10-19 15:22:00,
2013-10-19 09:27:00,48.1,31.2,29.95,West,270,2.0,4.0,52,0.00,,,0.00,WUHU216HW,2013-10-19 15:27:00,
2013-10-19 09:32:00,48.8,31.4,29.95,WNW,293,2.0,4.0,51,0.00,,,0.00,WUHU216HW,2013-10-19 15:32:00,
2013-10-19 09:37:00,49.3,31.5,29.95,NNW,338,3.0,4.0,50,0.00,,,0.00,WUHU216HW,2013-10-19 15:37:00,
2013-10-19 09:42:00,49.9,31.5,29.95,NW,315,3.0,5.0,49,0.00,,,0.00,WUHU216HW,2013-10-19 15:42:00,
2013-10-19 09:47:00,50.0,31.7,29.95,NNW,338,3.0,5.0,49,0.00,,,0.00,WUHU216HW,2013-10-19 15:47:00,
2013-10-19 09:52:00,50.2,30.2,29.96,North,0,3.0,5.0,46,0.00,,,0.00,WUHU216HW,2013-10-19 15:52:00,
2013-10-19 09:57:00,48.4,28.5,29.96,NNE,23,2.0,5.0,46,0.00,,,0.00,WUHU216HW,2013-10-19 15:57:00,
2013-10-19 10:02:00,48.1,28.6,29.95,NW,315,3.0,5.0,47,0.00,,,0.00,WUHU216HW,2013-10-19 16:02:00,
2013-10-19 10:07:00,49.5,30.1,29.95,NW,315,1.0,5.0,47,0.00,,,0.00,WUHU216HW,2013-10-19 16:07:00,
2013-10-19 10:12:00,50.8,30.6,29.95,NW,315,3.0,4.0,46,0.00,,,0.00,WUHU216HW,2013-10-19 16:12:00,
2013-10-19 10:17:00,51.8,30.5,29.95,West,270,3.0,4.0,44,0.00,,,0.00,WUHU216HW,2013-10-19 16:17:00,
2013-10-19 10:22:00,52.4,30.4,29.94,NW,315,1.0,4.0,43,0.00,,,0.00,WUHU216HW,2013-10-19 16:22:00,
2013-10-19 10:27:00,52.9,31.5,29.94,West,270,3.0,4.0,44,0.00,,,0.00,WUHU216HW,2013-10-19 16:27:00,
2013-10-19 10:32:00,53.6,31.6,29.94,West,270,2.0,3.0,43,0.00,,,0.00,WUHU216HW,2013-10-19 16:32:00,
2013-10-19 10:37:00,54.4,31.7,29.94,SSW,203,0.0,3.0,42,0.00,,,0.00,WUHU216HW,2013-10-19 16:37:00,
2013-10-19 10:42:00,54.5,30.7,29.94,SW,225,0.0,2.0,40,0.00,,,0.00,WUHU216HW,2013-10-19 16:42:00,
2013-10-19 10:47:00,55.1,31.1,29.94,WSW,248,2.0,2.0,40,0.00,,,0.00,WUHU216HW,2013-10-19 16:47:00,
2013-10-19 10:52:00,55.6,31.0,29.94,WSW,248,1.0,3.0,39,0.00,,,0.00,WUHU216HW,2013-10-19 16:52:00,
2013-10-19 10:57:00,56.2,30.8,29.94,SW,225,3.0,3.0,38,0.00,,,0.00,WUHU216HW,2013-10-19 16:57:00,
2013-10-19 11:02:00,56.7,31.2,29.93,SSW,203,1.0,3.0,38,0.00,,,0.00,WUHU216HW,2013-10-19 17:02:00,
2013-10-19 11:07:00,57.2,30.3,29.93,SE,135,0.0,3.0,36,0.00,,,0.00,WUHU216HW,2013-10-19 17:07:00,
2013-10-19 11:12:00,56.9,26.5,29.93,SSW,203,4.0,6.0,31,0.00,,,0.00,WUHU216HW,2013-10-19 17:12:00,
2013-10-19 11:17:00,57.6,29.3,29.93,SW,225,3.0,6.0,34,0.00,,,0.00,WUHU216HW,2013-10-19 17:17:00,
2013-10-19 11:22:00,58.5,29.3,29.93,SW,225,1.0,4.0,33,0.00,,,0.00,WUHU216HW,2013-10-19 17:22:00,
2013-10-19 11:27:00,58.9,29.0,29.93,SSW,203,3.0,5.0,32,0.00,,,0.00,WUHU216HW,2013-10-19 17:27:00,
2013-10-19 11:32:00,59.6,29.6,29.93,WSW,248,3.0,5.0,32,0.00,,,0.00,WUHU216HW,2013-10-19 17:32:00,
2013-10-19 11:37:00,60.1,28.6,29.93,SW,225,3.0,5.0,30,0.00,,,0.00,WUHU216HW,2013-10-19 17:37:00,
2013-10-19 11:42:00,60.3,26.8,29.92,SSW,203,3.0,6.0,28,0.00,,,0.00,WUHU216HW,2013-10-19 17:42:00,
2013-10-19 11:47:00,60.1,27.6,29.92,SW,225,1.0,6.0,29,0.00,,,0.00,WUHU216HW,2013-10-19 17:47:00,
2013-10-19 11:52:00,60.5,27.0,29.92,WSW,248,0.0,4.0,28,0.00,,,0.00,WUHU216HW,2013-10-19 17:52:00,
2013-10-19 11:57:00,60.8,26.3,29.92,SSE,158,6.0,6.0,27,0.00,,,0.00,WUHU216HW,2013-10-19 17:57:00,
2013-10-19 12:02:00,60.8,26.3,29.92,WSW,248,3.0,6.0,27,0.00,,,0.00,WUHU216HW,2013-10-19 18:02:00,
2013-10-19 12:07:00,61.4,26.7,29.92,SSW,203,3.0,5.0,27,0.00,,,0.00,WUHU216HW,2013-10-19 18:07:00,
2013-10-19 12:12:00,61.4,25.8,29.91,WSW,248,3.0,5.0,26,0.00,,,0.00,WUHU216HW,2013-10-19 18:12:00,
2013-10-19 12:17:00,61.6,25.0,29.91,South,180,3.0,4.0,25,0.00,,,0.00,WUHU216HW,2013-10-19 18:17:00,
2013-10-19 12:22:00,62.1,24.5,29.91,SSW,203,3.0,5.0,24,0.00,,,0.00,WUHU216HW,2013-10-19 18:22:00,
2013-10-19 12:27:00,62.5,25.7,29.90,SW,225,5.0,5.0,25,0.00,,,0.00,WUHU216HW,2013-10-19 18:27:00,
2013-10-19 12:32:00,62.5,25.7,29.90,WNW,293,3.0,5.0,25,0.00,,,0.00,WUHU216HW,2013-10-19 18:32:00,
2013-10-19 12:37:00,63.0,26.2,29.90,WSW,248,3.0,5.0,25,0.00,,,0.00,WUHU216HW,2013-10-19 18:37:00,
2013-10-19 12:42:00,63.2,26.4,29.90,NNW,338,2.0,5.0,25,0.00,,,0.00,WUHU216HW,2013-10-19 18:42:00,
2013-10-19 12:47:00,63.7,26.8,29.89,WNW,293,0.0,4.0,25,0.00,,,0.00,WUHU216HW,2013-10-19 18:47:00,
2013-10-19 12:52:00,63.7,25.8,29.89,South,180,2.0,3.0,24,0.00,,,0.00,WUHU216HW,2013-10-19 18:52:00,
2013-10-19 12:57:00,63.7,24.8,29.89,SW,225,3.0,5.0,23,0.00,,,0.00,WUHU216HW,2013-10-19 18:57:00,
2013-10-19 13:02:00,63.9,26.0,29.89,NNW,338,0.0,5.0,24,0.00,,,0.00,WUHU216HW,2013-10-19 19:02:00,
2013-10-19 13:07:00,64.4,26.5,29.89,South,180,2.0,4.0,24,0.00,,,0.00,WUHU216HW,2013-10-19 19:07:00,
2013-10-19 13:12:00,64.8,24.8,29.88,SSW,203,5.0,5.0,22,0.00,,,0.00,WUHU216HW,2013-10-19 19:12:00,
2013-10-19 13:17:00,65.0,24.9,29.88,SW,225,5.0,5.0,22,0.00,,,0.00,WUHU216HW,2013-10-19 19:17:00,
2013-10-19 13:22:00,65.0,24.9,29.88,SW,225,3.0,7.0,22,0.00,,,0.00,WUHU216HW,2013-10-19 19:22:00,
2013-10-19 13:27:00,65.5,25.4,29.88,WSW,248,3.0,7.0,22,0.00,,,0.00,WUHU216HW,2013-10-19 19:27:00,
2013-10-19 13:32:00,65.9,25.7,29.87,West,270,5.0,5.0,22,0.00,,,0.00,WUHU216HW,2013-10-19 19:32:00,
2013-10-19 13:37:00,65.9,24.7,29.87,ESE,113,2.0,5.0,21,0.00,,,0.00,WUHU216HW,2013-10-19 19:37:00,
2013-10-19 13:42:00,65.7,25.5,29.86,South,180,1.0,5.0,22,0.00,,,0.00,WUHU216HW,2013-10-19 19:42:00,
2013-10-19 13:47:00,65.2,24.0,29.86,NE,45,3.0,5.0,21,0.00,,,0.00,WUHU216HW,2013-10-19 19:47:00,
2013-10-19 13:52:00,64.6,24.7,29.86,SE,135,1.0,3.0,22,0.00,,,0.00,WUHU216HW,2013-10-19 19:52:00,
2013-10-19 13:57:00,65.0,24.9,29.86,SSW,203,1.0,3.0,22,0.00,,,0.00,WUHU216HW,2013-10-19 19:57:00,
2013-10-19 14:02:00,65.3,25.2,29.85,SSW,203,6.0,6.0,22,0.00,,,0.00,WUHU216HW,2013-10-19 20:02:00,
2013-10-19 14:07:00,65.5,24.4,29.85,SE,135,3.0,6.0,21,0.00,,,0.00,WUHU216HW,2013-10-19 20:07:00,
2013-10-19 14:12:00,65.3,25.2,29.85,East,90,1.0,6.0,22,0.00,,,0.00,WUHU216HW,2013-10-19 20:12:00,
2013-10-19 14:17:00,65.2,25.1,29.84,SW,225,2.0,6.0,22,0.00,,,0.00,WUHU216HW,2013-10-19 20:17:00,
2013-10-19 14:22:00,65.7,25.5,29.84,SSW,203,5.0,7.0,22,0.00,,,0.00,WUHU216HW,2013-10-19 20:22:00,
2013-10-19 14:27:00,66.2,25.9,29.84,SW,225,4.0,7.0,22,0.00,,,0.00,WUHU216HW,2013-10-19 20:27:00,
2013-10-19 14:32:00,66.6,25.3,29.84,ENE,68,4.0,7.0,21,0.00,,,0.00,WUHU216HW,2013-10-19 20:32:00,
2013-10-19 14:37:00,66.1,24.9,29.84,South,180,2.0,7.0,21,0.00,,,0.00,WUHU216HW,2013-10-19 20:37:00,
2013-10-19 14:42:00,66.4,25.1,29.84,SSE,158,3.0,5.0,21,0.00,,,0.00,WUHU216HW,2013-10-19 20:42:00,
2013-10-19 14:47:00,66.2,24.9,29.84,ESE,113,3.0,6.0,21,0.00,,,0.00,WUHU216HW,2013-10-19 20:47:00,
2013-10-19 14:52:00,66.4,25.1,29.84,ENE,68,0.0,6.0,21,0.00,,,0.00,WUHU216HW,2013-10-19 20:52:00,
2013-10-19 14:57:00,66.8,25.5,29.84,SSE,158,3.0,6.0,21,0.00,,,0.00,WUHU216HW,2013-10-19 20:57:00,
2013-10-19 15:02:00,67.1,24.8,29.83,SSW,203,4.0,7.0,20,0.00,,,0.00,WUHU216HW,2013-10-19 21:02:00,
2013-10-19 15:07:00,67.3,24.9,29.83,WSW,248,3.0,7.0,20,0.00,,,0.00,WUHU216HW,2013-10-19 21:07:00,
2013-10-19 15:12:00,67.1,23.1,29.83,SW,225,2.0,6.0,19,0.00,,,0.00,WUHU216HW,2013-10-19 21:12:00,
2013-10-19 15:17:00,67.3,25.9,29.83,SSW,203,3.0,6.0,21,0.00,,,0.00,WUHU216HW,2013-10-19 21:17:00,
2013-10-19 15:22:00,67.7,26.2,29.83,SSW,203,1.0,6.0,21,0.00,,,0.00,WUHU216HW,2013-10-19 21:22:00,
2013-10-19 15:27:00,67.7,23.7,29.82,SSW,203,2.0,5.0,19,0.00,,,0.00,WUHU216HW,2013-10-19 21:27:00,
2013-10-19 15:32:00,67.7,23.7,29.82,SE,135,2.0,5.0,19,0.00,,,0.00,WUHU216HW,2013-10-19 21:32:00,
2013-10-19 15:37:00,67.7,25.2,29.82,SE,135,1.0,5.0,20,0.00,,,0.00,WUHU216HW,2013-10-19 21:37:00,
2013-10-19 15:42:00,67.7,26.2,29.82,South,180,5.0,5.0,21,0.00,,,0.00,WUHU216HW,2013-10-19 21:42:00,
2013-10-19 15:47:00,67.9,23.8,29.82,South,180,1.0,6.0,19,0.00,,,0.00,WUHU216HW,2013-10-19 21:47:00,
2013-10-19 15:52:00,67.9,25.4,29.81,SE,135,1.0,6.0,20,0.00,,,0.00,WUHU216HW,2013-10-19 21:52:00,
2013-10-19 15:57:00,68.2,24.1,29.81,SE,135,3.0,5.0,19,0.00,,,0.00,WUHU216HW,2013-10-19 21:57:00,
2013-10-19 16:02:00,68.0,23.9,29.81,SSE,158,5.0,5.0,19,0.00,,,0.00,WUHU216HW,2013-10-19 22:02:00,
2013-10-19 16:07:00,68.0,23.9,29.81,SSW,203,5.0,5.0,19,0.00,,,0.00,WUHU216HW,2013-10-19 22:07:00,
2013-10-19 16:12:00,67.9,22.2,29.81,SSE,158,0.0,5.0,18,0.00,,,0.00,WUHU216HW,2013-10-19 22:12:00,
2013-10-19 16:17:00,67.3,23.3,29.81,WNW,293,2.0,6.0,19,0.00,,,0.00,WUHU216HW,2013-10-19 22:17:00,
2013-10-19 16:22:00,67.5,21.9,29.81,SW,225,1.0,6.0,18,0.00,,,0.00,WUHU216HW,2013-10-19 22:22:00,
2013-10-19 16:27:00,67.5,23.5,29.81,SSW,203,2.0,5.0,19,0.00,,,0.00,WUHU216HW,2013-10-19 22:27:00,
2013-10-19 16:32:00,67.7,23.7,29.81,SSE,158,3.0,5.0,19,0.00,,,0.00,WUHU216HW,2013-10-19 22:32:00,
2013-10-19 16:37:00,67.5,23.5,29.81,ESE,113,2.0,5.0,19,0.00,,,0.00,WUHU216HW,2013-10-19 22:37:00,
2013-10-19 16:42:00,67.5,25.1,29.80,South,180,3.0,4.0,20,0.00,,,0.00,WUHU216HW,2013-10-19 22:42:00,
2013-10-19 16:47:00,67.5,23.5,29.80,SE,135,1.0,8.0,19,0.00,,,0.00,WUHU216HW,2013-10-19 22:47:00,
2013-10-19 16:52:00,67.3,23.3,29.80,ESE,113,2.0,8.0,19,0.00,,,0.00,WUHU216HW,2013-10-19 22:52:00,
2013-10-19 16:57:00,67.0,23.1,29.80,SE,135,2.0,7.0,19,0.00,,,0.00,WUHU216HW,2013-10-19 22:57:00,
2013-10-19 17:02:00,67.0,23.1,29.80,SSW,203,1.0,5.0,19,0.00,,,0.00,WUHU216HW,2013-10-19 23:02:00,
2013-10-19 17:07:00,66.6,22.7,29.80,SE,135,2.0,5.0,19,0.00,,,0.00,WUHU216HW,2013-10-19 23:07:00,
2013-10-19 17:12:00,66.6,25.3,29.79,SSE,158,0.0,4.0,21,0.00,,,0.00,WUHU216HW,2013-10-19 23:12:00,
2013-10-19 17:18:00,66.6,25.3,29.79,South,180,0.0,4.0,21,0.00,,,0.00,WUHU216HW,2013-10-19 23:18:00,
2013-10-19 17:23:00,66.2,23.9,29.79,NW,315,3.0,3.0,20,0.00,,,0.00,WUHU216HW,2013-10-19 23:23:00,
2013-10-19 17:28:00,66.1,22.2,29.79,NW,315,1.0,3.0,19,0.00,,,0.00,WUHU216HW,2013-10-19 23:28:00,
2013-10-19 17:33:00,65.3,21.6,29.79,WSW,248,3.0,6.0,19,0.00,,,0.00,WUHU216HW,2013-10-19 23:33:00,
2013-10-19 17:38:00,65.3,23.2,29.79,West,270,5.0,6.0,20,0.00,,,0.00,WUHU216HW,2013-10-19 23:38:00,
2013-10-19 17:43:00,65.2,24.0,29.79,West,270,3.0,5.0,21,0.00,,,0.00,WUHU216HW,2013-10-19 23:43:00,
2013-10-19 17:48:00,65.0,24.0,29.79,WNW,293,1.0,5.0,21,0.00,,,0.00,WUHU216HW,2013-10-19 23:48:00,
2013-10-19 17:53:00,64.8,23.8,29.79,WNW,293,2.0,4.0,21,0.00,,,0.00,WUHU216HW,2013-10-19 23:53:00,
2013-10-19 17:58:00,64.4,23.5,29.79,West,270,1.0,4.0,21,0.00,,,0.00,WUHU216HW,2013-10-19 23:58:00,
2013-10-19 18:03:00,64.3,23.3,29.79,NW,315,1.0,4.0,21,0.00,,,0.00,WUHU216HW,2013-10-20 00:03:00,
2013-10-19 18:08:00,63.9,23.0,29.79,NNW,338,2.0,2.0,21,0.00,,,0.00,WUHU216HW,2013-10-20 00:08:00,
2013-10-19 18:13:00,63.7,23.0,29.79,NW,315,1.0,4.0,21,0.00,,,0.00,WUHU216HW,2013-10-20 00:13:00,
2013-10-19 18:18:00,63.4,22.6,29.79,NW,315,1.0,4.0,21,0.00,,,0.00,WUHU216HW,2013-10-20 00:18:00,
2013-10-19 18:23:00,63.0,22.3,29.79,WNW,293,3.0,3.0,21,0.00,,,0.00,WUHU216HW,2013-10-20 00:23:00,
2013-10-19 18:28:00,62.6,23.1,29.79,West,270,2.0,4.0,22,0.00,,,0.00,WUHU216HW,2013-10-20 00:28:00,
2013-10-19 18:33:00,62.3,22.7,29.79,NNW,338,1.0,4.0,22,0.00,,,0.00,WUHU216HW,2013-10-20 00:33:00,
2013-10-19 18:38:00,61.9,22.4,29.79,NNW,338,1.0,3.0,22,0.00,,,0.00,WUHU216HW,2013-10-20 00:38:00,
2013-10-19 18:43:00,61.7,21.3,29.79,NW,315,0.0,1.0,21,0.00,,,0.00,WUHU216HW,2013-10-20 00:43:00,
2013-10-19 18:48:00,61.4,22.0,29.79,NNW,338,2.0,3.0,22,0.00,,,0.00,WUHU216HW,2013-10-20 00:48:00,
2013-10-19 18:53:00,60.8,20.6,29.80,WNW,293,1.0,3.0,21,0.00,,,0.00,WUHU216HW,2013-10-20 00:53:00,
2013-10-19 18:58:00,60.7,21.3,29.80,NW,315,1.0,3.0,22,0.00,,,0.00,WUHU216HW,2013-10-20 00:58:00,
2013-10-19 19:03:00,60.3,20.1,29.80,SW,225,2.0,5.0,21,0.00,,,0.00,WUHU216HW,2013-10-20 01:03:00,
2013-10-19 19:08:00,60.1,19.9,29.80,WNW,293,3.0,5.0,21,0.00,,,0.00,WUHU216HW,2013-10-20 01:08:00,
2013-10-19 19:13:00,59.9,19.8,29.80,NW,315,1.0,3.0,21,0.00,,,0.00,WUHU216HW,2013-10-20 01:13:00,
2013-10-19 19:18:00,59.8,19.6,29.80,WNW,293,2.0,3.0,21,0.00,,,0.00,WUHU216HW,2013-10-20 01:18:00,
2013-10-19 19:23:00,59.4,19.3,29.80,NNW,338,0.0,2.0,21,0.00,,,0.00,WUHU216HW,2013-10-20 01:23:00,
2013-10-19 19:28:00,59.0,19.0,29.80,West,270,2.0,4.0,21,0.00,,,0.00,WUHU216HW,2013-10-20 01:28:00,
2013-10-19 19:33:00,58.9,18.8,29.81,SW,225,1.0,4.0,21,0.00,,,0.00,WUHU216HW,2013-10-20 01:33:00,
2013-10-19 19:38:00,58.5,19.5,29.81,SSW,203,0.0,3.0,22,0.00,,,0.00,WUHU216HW,2013-10-20 01:38:00,
2013-10-19 19:43:00,58.0,19.1,29.81,West,270,0.0,1.0,22,0.00,,,0.00,WUHU216HW,2013-10-20 01:43:00,
2013-10-19 19:47:00,57.2,19.5,29.81,ESE,113,0.0,0.0,23,0.00,,,0.00,WUHU216HW,2013-10-20 01:47:00,
2013-10-19 19:52:00,56.7,19.9,29.81,ENE,68,0.0,0.0,24,0.00,,,0.00,WUHU216HW,2013-10-20 01:52:00,
2013-10-19 19:58:00,56.2,19.4,29.81,ENE,68,0.0,0.0,24,0.00,,,0.00,WUHU216HW,2013-10-20 01:58:00,
2013-10-19 20:03:00,55.6,20.0,29.81,East,90,0.0,0.0,25,0.00,,,0.00,WUHU216HW,2013-10-20 02:03:00,
2013-10-19 20:08:00,55.1,19.5,29.81,NE,45,0.0,1.0,25,0.00,,,0.00,WUHU216HW,2013-10-20 02:08:00,
2013-10-19 20:13:00,54.7,21.1,29.81,East,90,0.0,1.0,27,0.00,,,0.00,WUHU216HW,2013-10-20 02:13:00,
2013-10-19 20:18:00,54.2,20.6,29.81,East,90,0.0,1.0,27,0.00,,,0.00,WUHU216HW,2013-10-20 02:18:00,
2013-10-19 20:23:00,53.6,21.2,29.81,East,90,0.0,1.0,28,0.00,,,0.00,WUHU216HW,2013-10-20 02:23:00,
2013-10-19 20:28:00,53.3,21.8,29.81,NE,45,0.0,1.0,29,0.00,,,0.00,WUHU216HW,2013-10-20 02:28:00,
2013-10-19 20:33:00,52.9,21.4,29.81,SE,135,0.0,1.0,29,0.00,,,0.00,WUHU216HW,2013-10-20 02:33:00,
2013-10-19 20:37:00,52.6,22.1,29.81,NNW,338,0.0,1.0,30,0.00,,,0.00,WUHU216HW,2013-10-20 02:37:00,
2013-10-19 20:42:00,52.2,21.8,29.81,ESE,113,0.0,1.0,30,0.00,,,0.00,WUHU216HW,2013-10-20 02:42:00,
2013-10-19 20:47:00,51.8,21.4,29.81,ENE,68,1.0,1.0,30,0.00,,,0.00,WUHU216HW,2013-10-20 02:47:00,
2013-10-19 20:52:00,51.5,21.8,29.81,ESE,113,0.0,1.0,31,0.00,,,0.00,WUHU216HW,2013-10-20 02:52:00,
2013-10-19 20:57:00,51.1,21.4,29.82,NE,45,0.0,1.0,31,0.00,,,0.00,WUHU216HW,2013-10-20 02:57:00,
2013-10-19 21:02:00,50.8,22.5,29.82,East,90,0.0,1.0,33,0.00,,,0.00,WUHU216HW,2013-10-20 03:02:00,
2013-10-19 21:07:00,50.6,22.3,29.82,East,90,0.0,1.0,33,0.00,,,0.00,WUHU216HW,2013-10-20 03:07:00,
2013-10-19 21:12:00,50.2,22.1,29.82,SSE,158,0.0,1.0,33,0.00,,,0.00,WUHU216HW,2013-10-20 03:12:00,
2013-10-19 21:17:00,50.0,21.9,29.82,SSE,158,1.0,1.0,33,0.00,,,0.00,WUHU216HW,2013-10-20 03:17:00,
2013-10-19 21:22:00,49.5,21.4,29.82,ENE,68,1.0,1.0,33,0.00,,,0.00,WUHU216HW,2013-10-20 03:22:00,
2013-10-19 21:27:00,49.1,21.8,29.82,ENE,68,1.0,2.0,34,0.00,,,0.00,WUHU216HW,2013-10-20 03:27:00,
2013-10-19 21:32:00,49.0,23.0,29.82,East,90,1.0,2.0,36,0.00,,,0.00,WUHU216HW,2013-10-20 03:32:00,
2013-10-19 21:37:00,48.8,22.9,29.82,ENE,68,2.0,2.0,36,0.00,,,0.00,WUHU216HW,2013-10-20 03:37:00,
2013-10-19 21:42:00,48.6,22.7,29.83,NE,45,1.0,2.0,36,0.00,,,0.00,WUHU216HW,2013-10-20 03:42:00,
2013-10-19 21:47:00,48.4,23.9,29.83,ENE,68,1.0,2.0,38,0.00,,,0.00,WUHU216HW,2013-10-20 03:47:00,
2013-10-19 21:52:00,48.4,23.9,29.83,East,90,2.0,2.0,38,0.00,,,0.00,WUHU216HW,2013-10-20 03:52:00,
2013-10-19 21:57:00,48.2,23.7,29.83,SE,135,0.0,2.0,38,0.00,,,0.00,WUHU216HW,2013-10-20 03:57:00,
2013-10-19 22:01:00,48.1,23.5,29.83,WSW,248,1.0,2.0,38,0.00,,,0.00,WUHU216HW,2013-10-20 04:01:00,
2013-10-19 22:02:00,47.9,23.4,29.83,SE,135,1.0,2.0,38,0.00,,,0.00,WUHU216HW,2013-10-20 04:02:00,
2013-10-19 22:07:00,47.7,23.2,29.83,SSE,158,0.0,1.0,38,0.00,,,0.00,WUHU216HW,2013-10-20 04:07:00,
2013-10-19 22:12:00,47.3,22.9,29.83,East,90,1.0,1.0,38,0.00,,,0.00,WUHU216HW,2013-10-20 04:12:00,
2013-10-19 22:17:00,47.2,22.7,29.83,ENE,68,1.0,2.0,38,0.00,,,0.00,WUHU216HW,2013-10-20 04:17:00,
2013-10-19 22:22:00,47.0,22.6,29.83,ENE,68,1.0,2.0,38,0.00,,,0.00,WUHU216HW,2013-10-20 04:22:00,
2013-10-19 22:27:00,47.0,23.2,29.83,East,90,0.0,2.0,39,0.00,,,0.00,WUHU216HW,2013-10-20 04:27:00,
2013-10-19 22:32:00,46.8,22.4,29.83,East,90,0.0,1.0,38,0.00,,,0.00,WUHU216HW,2013-10-20 04:32:00,
2013-10-19 22:37:00,46.4,22.1,29.83,East,90,1.0,1.0,38,0.00,,,0.00,WUHU216HW,2013-10-20 04:37:00,
2013-10-19 22:42:00,46.3,22.6,29.83,ENE,68,1.0,1.0,39,0.00,,,0.00,WUHU216HW,2013-10-20 04:42:00,
2013-10-19 22:47:00,46.3,23.2,29.83,ENE,68,1.0,2.0,40,0.00,,,0.00,WUHU216HW,2013-10-20 04:47:00,
2013-10-19 22:52:00,46.3,22.6,29.83,ENE,68,2.0,2.0,39,0.00,,,0.00,WUHU216HW,2013-10-20 04:52:00,
2013-10-19 22:57:00,46.3,22.6,29.83,ENE,68,2.0,2.0,39,0.00,,,0.00,WUHU216HW,2013-10-20 04:57:00,
2013-10-19 23:02:00,46.6,22.9,29.83,NE,45,1.0,2.0,39,0.00,,,0.00,WUHU216HW,2013-10-20 05:02:00,
2013-10-19 23:07:00,47.2,22.7,29.83,NE,45,1.0,2.0,38,0.00,,,0.00,WUHU216HW,2013-10-20 05:07:00,
2013-10-19 23:12:00,47.3,22.9,29.83,NE,45,0.0,1.0,38,0.00,,,0.00,WUHU216HW,2013-10-20 05:12:00,
2013-10-19 23:17:00,47.3,22.9,29.83,NNW,338,0.0,1.0,38,0.00,,,0.00,WUHU216HW,2013-10-20 05:17:00,
2013-10-19 23:22:00,47.2,22.7,29.83,NE,45,0.0,2.0,38,0.00,,,0.00,WUHU216HW,2013-10-20 05:22:00,
2013-10-19 23:27:00,47.0,21.9,29.83,NE,45,1.0,2.0,37,0.00,,,0.00,WUHU216HW,2013-10-20 05:27:00,
2013-10-19 23:32:00,47.5,22.4,29.82,NE,45,1.0,4.0,37,0.00,,,0.00,WUHU216HW,2013-10-20 05:32:00,
2013-10-19 23:37:00,47.9,22.1,29.82,NE,45,2.0,4.0,36,0.00,,,0.00,WUHU216HW,2013-10-20 05:37:00,
2013-10-19 23:42:00,48.2,22.3,29.82,NE,45,2.0,2.0,36,0.00,,,0.00,WUHU216HW,2013-10-20 05:42:00,
2013-10-19 23:47:00,48.2,21.7,29.82,NE,45,2.0,3.0,35,0.00,,,0.00,WUHU216HW,2013-10-20 05:47:00,
2013-10-19 23:52:00,48.6,21.3,29.82,NE,45,3.0,5.0,34,0.00,,,0.00,WUHU216HW,2013-10-20 05:52:00,
2013-10-19 23:57:00,49.3,21.2,29.82,NNE,23,2.0,5.0,33,0.00,,,0.00,WUHU216HW,2013-10-20 05:57:00,